    Orbital elements:
    2001 ED18
    Epoch 2001 Apr. 1.0 TT = JDT 2452000.5                  Spahr
    M 252.75516              (2000.0)            P               Q
    n   0.99935123     Peri.  305.82654     +0.55667756     +0.83069758
    a   0.9908105      Node   357.95886     -0.68220399     +0.45219787
    e   0.0570447      Incl.   11.63749     -0.47403355     +0.32474391
    P   0.99           H   24.8           G   0.15           U   5
    Residuals in seconds of arc
    010315 704  0.4-  0.7-    010317 118  0.9+  0.0     010318 704  0.1-  0.2+
    010315 704  0.3-  0.0     010317 118  0.6+  0.1-    010318 704  0.1+  0.1+
    010315 704  0.1+  0.0     010317 859  0.1+  1.3-    010318 704  0.3+  0.1+
    010316 704  0.3+  0.4+    010317 859 (2.5-  2.7-)   010318 704  0.3+  0.1-
    010316 704  0.3-  0.1-    010317 859 (1.4+  0.5+)   010318 704  0.4+  0.3+
    010316 704  0.0   0.1+    010317 649  0.2+  0.8-    010318 422  0.3+  0.3+
    010316 704  0.2+  0.5-    010317 649  0.2+  0.7-    010318 422  0.5-  0.0
    010316 704  0.3-  0.4+    010317 649  0.5-  0.4-    010318 422  0.2-  0.0
    010316 704  0.1+  0.8+    010317 649  0.6-  0.5-    010318 557  0.6-  0.8+
    010316 704  0.4-  0.2-    010317 704  0.3+  0.1+    010318 557  1.0-  0.8+
    010316 704  0.0   0.2+    010317 704  0.2+  0.3+    010318 557  1.0-  0.2+
    010316 704  0.0   0.2+    010317 704  0.6+  0.4+    010319 854  1.1+  0.2-
    010316 704  0.2-  0.3+    010317 704  0.5+  0.0     010319 854 (1.2+  2.3+)
    010316 704  0.1-  0.1-    010317 673  1.0+  0.8+    010319 670  0.7+  0.0
    010316 704  0.3-  0.5+    010317 673  0.7+  0.7+    010319 854  0.3+  0.5-
    010316 704  0.2+  0.5+    010317 670  1.2-  0.5+    010319 918  1.1-  0.6-
    010316 046  0.0   0.6-    010317 670  1.1+  0.3+    010319 918  0.5-  0.7-
    010316 046  0.5-  0.2-    010318 859  1.5-  0.0     010319 918  0.6-  0.4-
    010316 046  0.2-  0.1-    010318 859  0.9-  0.1+    010319 918  1.0-  1.0-
    010316 046  1.0-  0.2-    010318 859  0.8-  0.9+    010319 670  0.2+  0.4-
    010316 046  0.1-  0.0     010318 704  1.0+  0.9+    010319 670  0.9+  0.2+
    010317 046  0.1+  0.1+    010318 673  1.3-  1.0-    010319 422  0.5+  0.6+
    010317 046  0.1-  0.5-    010318 704  0.3-  0.5-    010319 422  0.6+  0.4+
    010317 118  0.7+  0.4+    010318 673 (2.1-  2.0+)   010319 422  0.4+  0.1+
    010317 046  1.0+  0.7-    010318 704  0.2+  0.2-    010319 422  0.4+  0.3+
    010317 118  0.1-  0.5-    010318 704  0.1-  0.1+    010319 422  0.3+  0.2+
    010317 118  0.7+  0.3+    010318 704  0.0   0.2-
    
    Ephemeris:
    2001 ED18                a,e,i = 0.99, 0.06, 12                  q = 0.9343
    Date    TT    R. A. (2000) Decl.     Delta      r     Elong.  Phase     V
    2001 03 12    12 57.85   +32 06.3    0.040    1.027   144.5    34.2    19.3
    2001 03 17    11 43.07   +15 30.0    0.029    1.023   165.9    13.7    17.9
    2001 03 22    10 03.34   -13 04.7    0.027    1.019   147.3    31.9    18.3
    2001 03 27    08 31.57   -33 51.8    0.036    1.015   117.7    60.5    19.8
    2001 04 01    07 28.74   -42 36.8    0.049    1.010   101.7    75.6    20.9
    2001 04 06    06 48.79   -46 21.1    0.065    1.006    92.7    83.6    21.8
    2001 04 11    06 22.10   -48 11.5    0.080    1.001    87.0    88.4    22.4
    
    Timothy B. Spahr             (C) Copyright 2001 MPC           M.P.E.C. 2001-F11
    

    Read MPEC 2001-F10 Read MPEC 2001-F12


    MPEC number:

    Enter an MPEC number in one of the following forms:

    • 1997-B01 (the full form)
    • J97B01 (the packed version of the full form)
    • B01 (the abbreviated form)